Weather History for Bentonville, AR

Change the Weather History Date:

Monday, January 14, 2013

  Actual Average Record
Temperature  
Mean Temperature 24 °F -  
Max Temperature 33 °F 42 °F 69 °F (1952)
Min Temperature 15 °F 19 °F -6 °F (1979)
Degree Days  
Heating Degree Days 41    
Moisture  
Dew Point 12 °F    
Average Humidity 63    
Maximum Humidity 86    
Minimum Humidity 35    
Precipitation  
Precipitation 0.00 in - - ()
Sea Level Pressure  
Sea Level Pressure 30.33 in    
Wind  
Wind Speed 5 mph (NE)    
Max Wind Speed 12 mph    
Max Gust Speed 16 mph    
Visibility 10 miles    
Events      
Averages and records for this station are not official NWS values.
T = Trace of Precipitation, MM = Missing Value Source: NWS Daily Summary

Daily Weather History Graph

Daily Weather History Graph

Search for Another Location

Airport:

Trip Planner

Search our weather history database for the weather conditions in past years. The results will help you decide how hot, cold, wet, or windy it might be!

Date:

Astronomy

Jan. 14, 2013 Rise Set
Actual Time 7:27 AM CST 5:24 PM CST
Civil Twilight 6:59 AM CST 5:52 PM CST
Nautical Twilight 6:28 AM CST 6:24 PM CST
Astronomical Twilight 5:57 AM CST 6:55 PM CST
Moon 9:08 AM CST (1/14) 9:03 PM CST (1/14)
Length of Visible Light 10h 53m
Length of Day
9h 56m
Waxing Crescent, 11% of the Moon is Illuminated
Jan 14
Waxing Crescent
Jan 18
First Quarter
Jan 26
Full
Feb 3
Last Quarter
Feb 10
New

Hourly Weather History & Observations

Time (CST) Temp. Windchill Dew Point Humidity Pressure Visibility Wind Dir Wind Speed Gust Speed Precip Events Conditions
12:15 AM 17.6 °F - 12.2 °F 79% 30.33 in 10.0 mi Calm Calm - N/A   Clear
12:35 AM 17.6 °F - 12.2 °F 79% 30.34 in 10.0 mi Calm Calm - N/A   Clear
12:55 AM 17.6 °F - 12.2 °F 79% 30.34 in 10.0 mi Calm Calm - N/A   Clear
1:35 AM 17.6 °F 10.7 °F 12.2 °F 79% 30.33 in 10.0 mi NE 4.6 mph - N/A   Clear
1:55 AM 17.6 °F 10.7 °F 12.2 °F 79% 30.33 in 10.0 mi NE 4.6 mph - N/A   Clear
2:15 AM 17.6 °F 12.3 °F 12.2 °F 79% 30.34 in 10.0 mi NE 3.5 mph - N/A   Clear
2:55 AM 15.8 °F 7.2 °F 12.2 °F 86% 30.34 in 10.0 mi NNE 5.8 mph - N/A   Clear
3:15 AM 15.8 °F 6.1 °F 12.2 °F 86% 30.33 in 10.0 mi NE 6.9 mph - N/A   Clear
3:35 AM 15.8 °F 10.2 °F 10.4 °F 79% 30.33 in 10.0 mi NE 3.5 mph - N/A   Clear
4:15 AM 15.8 °F 6.1 °F 10.4 °F 79% 30.31 in 10.0 mi NE 6.9 mph - N/A   Clear
4:35 AM 15.8 °F 5.1 °F 10.4 °F 79% 30.29 in 10.0 mi NNE 8.1 mph - N/A   Clear
4:55 AM 15.8 °F 7.2 °F 10.4 °F 79% 30.30 in 10.0 mi NNE 5.8 mph - N/A   Clear
5:15 AM 15.8 °F 8.6 °F 10.4 °F 79% 30.30 in 10.0 mi NNE 4.6 mph - N/A   Clear
5:35 AM 15.8 °F 8.6 °F 10.4 °F 79% 30.31 in 10.0 mi NNE 4.6 mph - N/A   Clear
5:55 AM 15.8 °F 10.2 °F 10.4 °F 79% 30.32 in 10.0 mi NNE 3.5 mph - N/A   Clear
6:15 AM 17.6 °F 12.3 °F 10.4 °F 73% 30.34 in 10.0 mi ENE 3.5 mph - N/A   Clear
6:35 AM 17.6 °F 10.7 °F 10.4 °F 73% 30.31 in 10.0 mi NE 4.6 mph - N/A   Clear
6:55 AM 17.6 °F 8.2 °F 12.2 °F 79% 30.32 in 10.0 mi NE 6.9 mph - N/A   Clear
7:15 AM 19.4 °F 10.4 °F 12.2 °F 74% 30.34 in 10.0 mi NNE 6.9 mph - N/A   Mostly Cloudy
7:35 AM 19.4 °F 10.4 °F 12.2 °F 74% 30.35 in 10.0 mi NE 6.9 mph - N/A   Mostly Cloudy
7:55 AM 19.4 °F 9.5 °F 12.2 °F 74% 30.36 in 10.0 mi East 8.1 mph - N/A   Overcast
8:15 AM 19.4 °F 11.5 °F 12.2 °F 74% 30.38 in 10.0 mi ENE 5.8 mph - N/A   Mostly Cloudy
8:35 AM 19.4 °F 11.5 °F 12.2 °F 74% 30.37 in 10.0 mi East 5.8 mph - N/A   Mostly Cloudy
8:55 AM 21.2 °F 13.6 °F 12.2 °F 68% 30.39 in 10.0 mi ENE 5.8 mph - N/A   Overcast
9:15 AM 21.2 °F 10.1 °F 12.2 °F 68% 30.40 in 10.0 mi East 10.4 mph - N/A   Mostly Cloudy
9:35 AM 21.2 °F 9.5 °F 10.4 °F 63% 30.42 in 10.0 mi East 11.5 mph - N/A   Clear
9:55 AM 21.2 °F 10.9 °F 10.4 °F 63% 30.42 in 10.0 mi East 9.2 mph - N/A   Partly Cloudy
10:15 AM 21.2 °F 10.9 °F 10.4 °F 63% 30.42 in 10.0 mi ENE 9.2 mph - N/A   Clear
10:35 AM 23.0 °F 11.7 °F 10.4 °F 59% 30.42 in 10.0 mi ENE 11.5 mph 16.1 mph N/A   Clear
10:55 AM 24.8 °F 15.3 °F 12.2 °F 59% 30.42 in 10.0 mi ENE 9.2 mph - N/A   Clear
11:15 AM 24.8 °F 14.0 °F 10.4 °F 54% 30.41 in 10.0 mi NE 11.5 mph - N/A   Clear
11:35 AM 26.6 °F 17.5 °F 12.2 °F 55% 30.39 in 10.0 mi NE 9.2 mph - N/A   Clear
11:55 AM 26.6 °F 19.1 °F 12.2 °F 55% 30.38 in 10.0 mi NE 6.9 mph - N/A   Clear
12:15 PM 26.6 °F 17.5 °F 12.2 °F 55% 30.37 in 10.0 mi ENE 9.2 mph - N/A   Clear
12:35 PM 28.4 °F 20.4 °F 12.2 °F 51% 30.35 in 10.0 mi NNE 8.1 mph - N/A   Clear
12:55 PM 30.2 °F 21.3 °F 14.0 °F 51% 30.33 in 10.0 mi East 10.4 mph - N/A   Clear
1:16 PM 30.2 °F 22.6 °F 12.2 °F 47% 30.31 in 10.0 mi ENE 8.1 mph - N/A   Clear
1:35 PM 32.0 °F 26.4 °F 12.2 °F 44% 30.31 in 10.0 mi NE 5.8 mph - N/A   Clear
2:16 PM 32.0 °F 24.8 °F 10.4 °F 41% 30.30 in 10.0 mi ENE 8.1 mph - N/A   Clear
2:35 PM 33.8 °F 26.4 °F 12.2 °F 41% 30.29 in 10.0 mi East 9.2 mph - N/A   Clear
2:55 PM 33.8 °F 26.4 °F 10.4 °F 38% 30.30 in 10.0 mi ENE 9.2 mph - N/A   Clear
3:16 PM 33.8 °F 27.0 °F 10.4 °F 38% 30.30 in 10.0 mi NE 8.1 mph - N/A   Clear
3:35 PM 33.8 °F 27.7 °F 12.2 °F 41% 30.29 in 10.0 mi NE 6.9 mph - N/A   Clear
3:55 PM 33.8 °F 27.0 °F 12.2 °F 41% 30.29 in 10.0 mi NE 8.1 mph - N/A   Clear
4:15 PM 33.8 °F 27.0 °F 10.4 °F 38% 30.30 in 10.0 mi ENE 8.1 mph - N/A   Clear
4:36 PM 33.8 °F 27.0 °F 8.6 °F 35% 30.30 in 10.0 mi East 8.1 mph - N/A   Clear
4:55 PM 32.0 °F 24.8 °F 10.4 °F 41% 30.29 in 10.0 mi ENE 8.1 mph - N/A   Clear
5:15 PM 30.2 °F 23.4 °F 8.6 °F 40% 30.29 in 10.0 mi East 6.9 mph - N/A   Clear
5:35 PM 30.2 °F 24.3 °F 8.6 °F 40% 30.29 in 10.0 mi East 5.8 mph - N/A   Clear
5:55 PM 28.4 °F 22.2 °F 8.6 °F 43% 30.29 in 10.0 mi ENE 5.8 mph - N/A   Clear
6:15 PM 28.4 °F 23.3 °F 10.4 °F 47% 30.29 in 10.0 mi ENE 4.6 mph - N/A   Clear
6:36 PM 28.4 °F 24.6 °F 10.4 °F 47% 30.29 in 10.0 mi NE 3.5 mph - N/A   Clear
6:55 PM 26.6 °F 22.6 °F 10.4 °F 51% 30.29 in 10.0 mi NE 3.5 mph - N/A   Clear
7:15 PM 26.6 °F 22.6 °F 14.0 °F 59% 30.29 in 10.0 mi NE 3.5 mph - N/A   Clear
7:36 PM 26.6 °F 22.6 °F 14.0 °F 59% 30.29 in 10.0 mi NE 3.5 mph - N/A   Clear
7:55 PM 26.6 °F 21.2 °F 14.0 °F 59% 30.29 in 10.0 mi NE 4.6 mph - N/A   Clear
8:35 PM 24.8 °F 19.1 °F 15.8 °F 69% 30.29 in 10.0 mi NNE 4.6 mph - N/A   Clear
8:55 PM 24.8 °F 19.1 °F 15.8 °F 69% 30.30 in 10.0 mi NNE 4.6 mph - N/A   Clear
9:15 PM 23.0 °F 15.8 °F 14.0 °F 68% 30.29 in 10.0 mi NE 5.8 mph - N/A   Clear
9:35 PM 23.0 °F 14.7 °F 15.8 °F 74% 30.29 in 10.0 mi NNE 6.9 mph - N/A   Clear
10:15 PM 23.0 °F 15.8 °F 15.8 °F 74% 30.29 in 10.0 mi NE 5.8 mph - N/A   Clear
10:35 PM 23.0 °F 15.8 °F 15.8 °F 74% 30.29 in 10.0 mi NE 5.8 mph - N/A   Clear
10:55 PM 23.0 °F 15.8 °F 14.0 °F 68% 30.29 in 10.0 mi NE 5.8 mph - N/A   Clear
11:16 PM 23.0 °F 15.8 °F 14.0 °F 68% 30.28 in 10.0 mi ENE 5.8 mph - N/A   Clear
11:55 PM 21.2 °F 14.9 °F 14.0 °F 74% 30.29 in 10.0 mi NE 4.6 mph - N/A   Clear